GW0809 Weather Reports


time (UTC)temp
C
wind
direction
speed
KPH
gust
KPH
rain 1hr
cm
rain 24hr
cm
rain mn
cm
humidity
%
barometer
mb
20260504151055 16 0 0.0 3.2 0.00 0.00 0.00 72 1009.7
20260504150600 15 0 0.0 3.2 0.00 0.00 0.00 72 1009.7
20260504150105 14 142 0.0 1.6 0.00 0.00 0.00 76 1009.7
20260504141054 11 0 0.0 1.6 0.00 0.00 0.00 91 1009.4
20260504140555 11 5 0.0 1.6 0.00 0.00 0.00 92 1009.4
20260504130559 9 0 0.0 3.2 0.00 0.00 0.00 91 1008.7
20260504110554 11 0 0.0 0.0 0.00 0.00 0.00 88 1008.8
20260504100554 11 0 0.0 1.6 0.00 0.00 0.00 86 1008.7
20260504081555 12 0 0.0 0.0 0.00 0.00 0.00 85 1008.6
20260504081054 12 0 0.0 0.0 0.00 0.00 0.00 84 1008.7
20260504080554 12 0 0.0 0.0 0.00 0.00 0.00 84 1008.5
20260504070106 14 0 0.0 0.0 0.00 0.00 0.00 83 1008.4
20260504050555 16 0 0.0 0.0 0.00 0.00 0.00 76 1008.5
20260504045553 17 0 0.0 0.0 0.00 0.00 0.00 75 1008.5
20260504045053 17 0 0.0 0.0 0.00 0.00 0.00 75 1008.6
20260504044557 17 0 0.0 0.0 0.00 0.00 0.00 74 1008.6
20260504044055 17 0 0.0 0.0 0.00 0.00 0.00 75 1008.6
20260504043554 17 0 0.0 0.0 0.00 0.00 0.00 74 1008.7
20260504043054 17 0 0.0 0.0 0.00 0.00 0.00 74 1008.7
20260504042555 17 0 0.0 0.0 0.00 0.00 0.00 74 1008.6
20260504042054 18 0 0.0 0.0 0.00 0.00 0.00 74 1008.6
20260504041554 18 0 0.0 1.6 0.00 0.00 0.00 74 1008.6
20260504041055 18 0 0.0 1.6 0.00 0.00 0.00 73 1008.6
20260504040557 18 0 0.0 1.6 0.00 0.00 0.00 72 1008.6
20260504040058 18 286 0.0 0.0 0.00 0.00 0.00 70 1008.5
20260504035554 18 0 0.0 0.0 0.00 0.00 0.00 68 1008.4
20260504035054 19 0 0.0 0.0 0.00 0.00 0.00 68 1008.3
20260504034609 19 0 0.0 0.0 0.00 0.00 0.00 67 1008.2
20260504034054 20 0 0.0 1.6 0.00 0.00 0.00 65 1008.3
20260504033554 20 0 0.0 1.6 0.00 0.00 0.00 63 1008.1
20260504033053 20 0 0.0 1.6 0.00 0.00 0.00 62 1008.3
20260504032555 20 0 0.0 1.6 0.00 0.00 0.00 62 1008.5
20260504032054 20 0 0.0 0.0 0.00 0.00 0.00 61 1008.5
20260504031552 20 0 0.0 0.0 0.00 0.00 0.00 61 1008.4
20260504031053 21 0 0.0 0.0 0.00 0.00 0.00 61 1008.5
20260504030553 21 0 0.0 0.0 0.00 0.00 0.00 59 1008.5
20260504030053 21 0 0.0 0.0 0.00 0.00 0.00 59 1008.6
20260504025553 21 0 0.0 0.0 0.00 0.00 0.00 57 1008.6
20260504025054 21 0 0.0 0.0 0.00 0.00 0.00 56 1008.5
20260504024553 22 0 0.0 0.0 0.00 0.00 0.00 55 1008.5
20260504024055 22 0 0.0 0.0 0.00 0.00 0.00 55 1008.4
20260504023555 22 0 0.0 0.0 0.00 0.00 0.00 55 1008.5
20260504023054 22 0 0.0 0.0 0.00 0.00 0.00 53 1008.4
20260504022555 23 0 0.0 1.6 0.00 0.00 0.00 54 1008.5
20260504022054 23 0 0.0 1.6 0.00 0.00 0.00 52 1008.3
20260504021554 23 286 0.0 1.6 0.00 0.00 0.00 50 1008.6
20260504021056 23 0 0.0 1.6 0.00 0.00 0.00 47 1008.5
20260504020554 23 0 0.0 1.6 0.00 0.00 0.00 48 1008.5
20260504020053 24 0 0.0 1.6 0.00 0.00 0.00 49 1008.6
20260504015555 24 0 0.0 1.6 0.00 0.00 0.00 47 1008.7
20260504015054 25 0 0.0 1.6 0.00 0.00 0.00 44 1008.8
20260504014603 25 0 0.0 1.6 0.00 0.00 0.00 42 1008.8
20260504014053 25 0 0.0 1.6 0.00 0.00 0.00 40 1008.9
20260504013557 25 0 0.0 3.2 0.00 0.00 0.00 40 1008.9
20260504013054 25 0 0.0 3.2 0.00 0.00 0.00 40 1008.8
20260504012557 25 182 0.0 3.2 0.00 0.00 0.00 38 1008.8
20260504012054 26 0 0.0 3.2 0.00 0.00 0.00 37 1008.9
20260504011559 26 0 0.0 3.2 0.00 0.00 0.00 37 1009.0
20260504011054 26 0 0.0 4.8 0.00 0.00 0.00 34 1009.0
20260504010554 26 109 0.0 4.8 0.00 0.00 0.00 36 1009.0
20260504010059 27 239 0.0 3.2 0.00 0.00 0.00 35 1009.2
20260504005554 27 0 0.0 3.2 0.00 0.00 0.00 33 1009.2
20260504005054 27 0 0.0 3.2 0.00 0.00 0.00 33 1009.4
20260504004555 27 252 0.0 3.2 0.00 0.00 0.00 32 1009.4
20260504004054 28 212 0.0 4.8 0.00 0.00 0.00 36 1009.5
20260504003554 28 0 0.0 4.8 0.00 0.00 0.00 36 1009.5
20260504003059 28 0 0.0 4.8 0.00 0.00 0.00 36 1009.5
20260504002555 28 172 0.0 3.2 0.00 0.00 0.00 37 1009.6
20260504002054 28 163 1.6 9.7 0.00 0.00 0.00 37 1009.6
20260504001606 28 117 0.0 9.7 0.00 0.00 0.00 38 1009.7
20260504001054 28 96 0.0 6.4 0.00 0.00 0.00 40 1009.8
20260504000555 28 0 0.0 8.0 0.00 0.00 0.00 40 1009.6
20260504000057 28 182 1.6 8.0 0.00 0.00 0.00 40 1009.7
20260503235553 28 17 1.6 8.0 0.00 0.00 0.00 39 1009.7
20260503235057 28 113 0.0 4.8 0.00 0.00 0.00 40 1009.8
20260503234553 28 196 0.0 4.8 0.00 0.00 0.00 38 1009.9
20260503234054 28 0 0.0 4.8 0.00 0.00 0.00 36 1009.9
20260503233554 28 191 1.6 4.8 0.00 0.00 0.00 36 1010.0
20260503233057 28 0 0.0 4.8 0.00 0.00 0.00 36 1010.1
20260503232553 28 0 1.6 9.7 0.00 0.00 0.00 35 1010.0
20260503232056 28 0 0.0 9.7 0.00 0.00 0.00 38 1010.1
20260503231559 28 132 1.6 6.4 0.00 0.00 0.00 39 1010.2
20260503231054 28 96 0.0 4.8 0.00 0.00 0.00 38 1010.2
20260503230554 28 0 0.0 8.0 0.00 0.00 0.00 42 1010.3
20260503230059 28 0 1.6 8.0 0.00 0.00 0.00 39 1010.4
20260503225553 28 50 1.6 9.7 0.00 0.00 0.00 40 1010.4
20260503225053 28 196 0.0 11.3 0.00 0.00 0.00 40 1010.6
20260503224552 28 223 1.6 12.9 0.00 0.00 0.00 41 1010.7
20260503224054 28 177 3.2 12.9 0.00 0.00 0.00 41 1010.7
20260503223554 28 272 1.6 8.0 0.00 0.00 0.00 42 1010.8
20260503223055 28 219 1.6 8.0 0.00 0.00 0.00 44 1010.8
20260503222553 28 346 1.6 8.0 0.00 0.00 0.00 42 1011.0
20260503222053 27 184 1.6 8.0 0.00 0.00 0.00 42 1010.9
20260503221554 27 157 1.6 6.4 0.00 0.00 0.00 42 1011.0
20260503221054 27 117 0.0 6.4 0.00 0.00 0.00 43 1011.0
20260503220554 27 202 1.6 11.3 0.00 0.00 0.00 46 1011.1
20260503220104 27 5 1.6 11.3 0.00 0.00 0.00 44 1011.1
20260503215553 27 161 1.6 9.7 0.00 0.00 0.00 43 1011.1
20260503215054 27 236 1.6 9.7 0.00 0.00 0.00 42 1011.2
20260503214556 27 32 1.6 8.0 0.00 0.00 0.00 43 1011.2
20260503214053 27 0 0.0 9.7 0.00 0.00 0.00 46 1011.3
20260503213553 27 0 1.6 9.7 0.00 0.00 0.00 45 1011.4
20260503213108 27 5 1.6 9.7 0.00 0.00 0.00 44 1011.5
20260503212556 27 286 1.6 8.0 0.00 0.00 0.00 50 1011.5
20260503212053 27 5 1.6 9.7 0.00 0.00 0.00 47 1011.5
20260503211556 26 326 1.6 9.7 0.00 0.00 0.00 47 1011.5
20260503211054 26 153 1.6 6.4 0.00 0.00 0.00 47 1011.5
20260503210554 26 225 1.6 8.0 0.00 0.00 0.00 46 1011.6
20260503205554 26 19 1.6 12.9 0.00 0.00 0.00 48 1011.7
20260503205056 26 23 4.8 12.9 0.00 0.00 0.00 46 1011.6
20260503204555 26 37 3.2 9.7 0.00 0.00 0.00 45 1011.8
20260503204058 27 42 1.6 8.0 0.00 0.00 0.00 41 1011.8
20260503203553 27 265 1.6 6.4 0.00 0.00 0.00 39 1011.8
20260503203102 27 0 1.6 6.4 0.00 0.00 0.00 37 1011.9
20260503202554 26 312 1.6 8.0 0.00 0.00 0.00 37 1012.1
20260503202054 27 209 3.2 8.0 0.00 0.00 0.00 35 1012.1
20260503201554 27 23 1.6 9.7 0.00 0.00 0.00 37 1012.2
20260503201053 27 24 1.6 9.7 0.00 0.00 0.00 36 1012.2
20260503200557 27 49 1.6 9.7 0.00 0.00 0.00 37 1012.3
20260503200057 27 47 3.2 8.0 0.00 0.00 0.00 39 1012.3
20260503195553 26 343 1.6 8.0 0.00 0.00 0.00 39 1012.4
20260503195054 26 51 1.6 9.7 0.00 0.00 0.00 37 1012.4
20260503194554 26 56 1.6 11.3 0.00 0.00 0.00 38 1012.4
20260503194056 26 238 1.6 11.3 0.00 0.00 0.00 36 1012.4
20260503193554 26 0 1.6 6.4 0.00 0.00 0.00 38 1012.4
20260503193057 26 54 1.6 8.0 0.00 0.00 0.00 38 1012.5
20260503192554 25 202 1.6 9.7 0.00 0.00 0.00 40 1012.5
20260503192053 25 39 3.2 9.7 0.00 0.00 0.00 38 1012.5
20260503191605 25 26 3.2 9.7 0.00 0.00 0.00 40 1012.5
20260503191054 25 205 1.6 8.0 0.00 0.00 0.00 39 1012.5
20260503190554 25 219 1.6 12.9 0.00 0.00 0.00 41 1012.6
20260503190058 25 0 1.6 12.9 0.00 0.00 0.00 39 1012.6
20260503185553 25 53 4.8 12.9 0.00 0.00 0.00 37 1012.6
20260503185055 25 93 1.6 11.3 0.00 0.00 0.00 38 1012.6
20260503184609 25 13 3.2 8.0 0.00 0.00 0.00 39 1012.7
20260503184053 24 30 3.2 12.9 0.00 0.00 0.00 40 1012.7
20260503183553 24 5 3.2 12.9 0.00 0.00 0.00 42 1012.7
20260503183108 24 28 3.2 11.3 0.00 0.00 0.00 39 1012.8
20260503182556 24 24 1.6 12.9 0.00 0.00 0.00 39 1012.8
20260503182055 24 15 3.2 12.9 0.00 0.00 0.00 39 1012.9
20260503181609 24 19 3.2 6.4 0.00 0.00 0.00 39 1013.0
20260503181054 24 5 1.6 6.4 0.00 0.00 0.00 44 1013.1
20260503180554 24 5 0.0 8.0 0.00 0.00 0.00 43 1013.1
20260503180053 23 11 1.6 9.7 0.00 0.00 0.00 43 1013.2
20260503175553 23 125 3.2 9.7 0.00 0.00 0.00 43 1013.3
20260503175056 23 0 1.6 6.4 0.00 0.00 0.00 43 1013.5
20260503174554 23 0 1.6 6.4 0.00 0.00 0.00 44 1013.5
20260503174053 23 121 3.2 8.0 0.00 0.00 0.00 44 1013.5
20260503173553 22 0 1.6 8.0 0.00 0.00 0.00 46 1013.6
20260503173100 22 18 1.6 6.4 0.00 0.00 0.00 46 1013.6
20260503172553 22 140 1.6 9.7 0.00 0.00 0.00 47 1013.7
20260503172052 21 63 1.6 11.3 0.00 0.00 0.00 50 1013.7
20260503171553 21 134 4.8 11.3 0.00 0.00 0.00 49 1013.8
20260503171053 21 15 1.6 9.7 0.00 0.00 0.00 50 1013.8
20260503170553 21 19 3.2 9.7 0.00 0.00 0.00 50 1013.8